BAW706 EGLL-LCLK

Flight info

Callsign BAW706
Flight time N/A
Altitude 37000
Route DET1J DET L6 DVR UL9 KONAN DCT KOK DCT REMBA DCT SPI DCT ULNOK DCT VIBOM DCT NOMBO DCT RIDAR DCT GOMIG DCT GOTAR/N0442F390 DCT BABIT DCT KOTUS DCT NISVA N131 USALI DCT RODIP DCT BELGI UN131 KULAR UT39 TOMBI M855 DASNI M601 BONEK BONEK1R
Aircraft A20N/M-SDGIJ1LRWXY/SB1

Departure

Time N/A
Airport London Heathrow Airport (EGLL)

Arrival

Time 2026-05-04 17:42
Airport Larnaca International Airport (LCLK)
Time Latitude Longitude Altitude Speed Heading
2026-05-04 15:26 45.98920 18.78948 39064 ft 450 kts 119°
2026-05-04 15:26 45.94092 18.90549 39058 ft 451 kts 122°
2026-05-04 15:27 45.88229 19.01137 39054 ft 451 kts 129°
2026-05-04 15:28 45.82105 19.11330 39047 ft 452 kts 129°
2026-05-04 15:29 45.75936 19.21570 39047 ft 452 kts 129°
2026-05-04 15:30 45.61523 19.45343 39055 ft 453 kts 129°
2026-05-04 15:31 45.56006 19.54389 39059 ft 453 kts 129°
2026-05-04 15:32 45.45623 19.71333 39068 ft 453 kts 129°
2026-05-04 15:34 45.35206 19.88234 39071 ft 454 kts 130°
2026-05-04 15:34 45.28635 19.97840 39068 ft 455 kts 137°
2026-05-04 15:35 45.21590 20.06859 39074 ft 454 kts 136°
2026-05-04 15:36 45.14545 20.15885 39073 ft 454 kts 136°
2026-05-04 15:36 45.09850 20.21881 39066 ft 454 kts 136°
2026-05-04 15:37 45.05154 20.27863 39063 ft 454 kts 136°
2026-05-04 15:37 45.00484 20.33796 39062 ft 454 kts 136°
2026-05-04 15:38 44.95787 20.39754 39062 ft 454 kts 136°
2026-05-04 15:38 44.91081 20.45707 39061 ft 455 kts 136°
2026-05-04 15:39 44.86362 20.51664 39063 ft 455 kts 136°
2026-05-04 15:40 44.79273 20.60584 39064 ft 455 kts 136°
2026-05-04 15:40 44.74568 20.66490 39068 ft 456 kts 136°
2026-05-04 15:41 44.69800 20.72459 39071 ft 456 kts 136°
2026-05-04 15:41 44.65056 20.78385 39074 ft 456 kts 136°
2026-05-04 15:42 44.60330 20.84274 39078 ft 457 kts 136°
2026-05-04 15:42 44.55573 20.90191 39078 ft 457 kts 137°
2026-05-04 15:43 44.50811 20.96098 39077 ft 457 kts 137°
2026-05-04 15:43 44.46047 21.01996 39080 ft 457 kts 137°
2026-05-04 15:44 44.41268 21.07898 39081 ft 457 kts 137°
2026-05-04 15:44 44.36491 21.13786 39081 ft 457 kts 137°
2026-05-04 15:45 44.31714 21.19657 39085 ft 457 kts 137°
2026-05-04 15:45 44.26937 21.25518 39075 ft 457 kts 137°
2026-05-04 15:46 44.22165 21.31356 39073 ft 455 kts 137°
2026-05-04 15:46 44.17420 21.37155 39074 ft 456 kts 137°
2026-05-04 15:47 44.12646 21.42973 39072 ft 455 kts 137°
2026-05-04 15:47 44.07868 21.48781 39073 ft 455 kts 137°
2026-05-04 15:48 44.03092 21.54576 39076 ft 455 kts 137°
2026-05-04 15:48 43.95968 21.63195 39067 ft 454 kts 137°
2026-05-04 15:49 43.91198 21.68949 39062 ft 454 kts 137°
2026-05-04 15:49 43.86425 21.74693 39060 ft 454 kts 137°
2026-05-04 15:50 43.81659 21.80419 39057 ft 453 kts 137°
2026-05-04 15:50 43.76886 21.86141 39062 ft 454 kts 137°
2026-05-04 15:51 43.72107 21.91855 39066 ft 454 kts 137°
2026-05-04 15:51 43.67322 21.97566 39067 ft 455 kts 137°
2026-05-04 15:52 43.62524 22.03278 39071 ft 455 kts 137°
2026-05-04 15:52 43.57747 22.08950 39074 ft 456 kts 137°
2026-05-04 15:53 43.52932 22.14660 39083 ft 457 kts 137°
2026-05-04 15:53 43.48099 22.20378 39081 ft 457 kts 137°
2026-05-04 15:54 43.43268 22.26080 39084 ft 457 kts 137°
2026-05-04 15:54 43.38435 22.31772 39082 ft 458 kts 137°
2026-05-04 15:55 43.33605 22.37450 39075 ft 456 kts 137°
2026-05-04 15:55 43.28785 22.43100 39077 ft 456 kts 137°
2026-05-04 15:56 43.23981 22.48721 39082 ft 456 kts 138°
2026-05-04 15:56 43.19145 22.54366 39081 ft 457 kts 138°
2026-05-04 15:57 43.14302 22.60008 39081 ft 456 kts 138°
2026-05-04 15:57 43.09456 22.65643 39079 ft 456 kts 138°
2026-05-04 15:58 43.04621 22.71253 39077 ft 455 kts 138°
2026-05-04 15:58 42.99783 22.76857 39074 ft 455 kts 138°
2026-05-04 15:59 42.95014 22.82477 39082 ft 455 kts 135°
2026-05-04 15:59 42.90428 22.88428 39081 ft 455 kts 135°
2026-05-04 16:00 42.85837 22.94380 39083 ft 455 kts 135°
2026-05-04 16:00 42.81224 23.00281 39085 ft 455 kts 135°
2026-05-04 16:01 42.76593 23.06177 39098 ft 456 kts 135°
2026-05-04 16:01 42.71961 23.12058 39100 ft 456 kts 135°
2026-05-04 16:02 42.67363 23.17888 39103 ft 456 kts 135°
2026-05-04 16:03 42.60374 23.26723 39105 ft 457 kts 135°
2026-05-04 16:03 42.55722 23.32589 39107 ft 456 kts 135°
2026-05-04 16:04 42.51070 23.38442 39107 ft 456 kts 136°
2026-05-04 16:04 42.44089 23.47201 39106 ft 456 kts 136°
2026-05-04 16:05 42.39432 23.53028 39104 ft 455 kts 136°
2026-05-04 16:06 42.32446 23.61747 39095 ft 455 kts 136°
2026-05-04 16:07 42.23057 23.73264 39093 ft 456 kts 136°
2026-05-04 16:08 42.13665 23.84668 39078 ft 455 kts 136°
2026-05-04 16:09 42.01919 23.98873 39057 ft 453 kts 137°
2026-05-04 16:10 41.92518 24.10185 39055 ft 453 kts 137°
2026-05-04 16:11 41.83154 24.21414 39050 ft 453 kts 137°
2026-05-04 16:12 41.69042 24.38240 39035 ft 453 kts 137°
2026-05-04 16:13 41.59585 24.49461 39043 ft 455 kts 137°
2026-05-04 16:14 41.50123 24.60641 39044 ft 456 kts 137°
2026-05-04 16:16 41.38307 24.74859 39047 ft 458 kts 133°
2026-05-04 16:17 41.26996 24.89814 39053 ft 460 kts 134°
2026-05-04 16:18 41.18596 25.00725 39046 ft 460 kts 134°
2026-05-04 16:19 41.07120 25.15565 39045 ft 461 kts 134°
2026-05-04 16:20 40.95630 25.30350 39047 ft 462 kts 134°
2026-05-04 16:22 40.84084 25.45133 39052 ft 462 kts 135°
2026-05-04 16:23 40.70214 25.62787 39041 ft 462 kts 135°
2026-05-04 16:25 40.56257 25.80448 39057 ft 465 kts 135°
2026-05-04 16:26 40.40813 26.02068 39074 ft 465 kts 130°
2026-05-04 16:28 40.30120 26.17988 39082 ft 467 kts 130°
2026-05-04 16:29 40.15029 26.40314 39082 ft 468 kts 130°
2026-05-04 16:31 40.03594 26.55319 39075 ft 467 kts 134°
2026-05-04 16:32 39.89641 26.73175 39067 ft 470 kts 135°
2026-05-04 16:33 39.80341 26.85018 39044 ft 468 kts 135°
2026-05-04 16:34 39.73324 26.93834 39033 ft 467 kts 136°
2026-05-04 16:35 39.59061 27.11247 39045 ft 470 kts 136°
2026-05-04 16:36 39.51943 27.19937 39044 ft 470 kts 136°
2026-05-04 16:37 39.45431 27.29407 39052 ft 470 kts 128°
2026-05-04 16:38 39.37100 27.42459 39058 ft 471 kts 128°
2026-05-04 16:39 39.26639 27.58752 39063 ft 471 kts 128°
2026-05-04 16:40 39.18240 27.71766 39052 ft 472 kts 129°
2026-05-04 16:41 39.07749 27.87952 39045 ft 472 kts 129°
2026-05-04 16:43 38.97193 28.04155 39046 ft 472 kts 129°
2026-05-04 16:43 38.90880 28.13805 39037 ft 472 kts 129°
2026-05-04 16:45 38.78178 28.33136 39027 ft 472 kts 130°
2026-05-04 16:46 38.67591 28.49161 39029 ft 473 kts 130°
2026-05-04 16:47 38.58937 28.61866 39013 ft 474 kts 136°
2026-05-04 16:48 38.48489 28.72002 39031 ft 474 kts 145°
2026-05-04 16:49 38.37667 28.81673 39031 ft 475 kts 146°
2026-05-04 16:50 38.26833 28.91317 39027 ft 472 kts 146°
2026-05-04 16:51 38.18714 28.98522 39022 ft 475 kts 146°
2026-05-04 16:52 38.07860 29.08122 39030 ft 476 kts 146°
2026-05-04 16:53 37.99712 29.15307 39024 ft 475 kts 146°
2026-05-04 16:54 37.88855 29.24853 39024 ft 478 kts 146°
2026-05-04 16:55 37.72489 29.39174 39022 ft 477 kts 146°
2026-05-04 16:56 37.58823 29.51077 39022 ft 477 kts 147°
2026-05-04 16:57 37.50630 29.58189 39015 ft 476 kts 147°
2026-05-04 16:58 37.39702 29.67643 38999 ft 477 kts 147°
2026-05-04 17:00 37.23327 29.81762 38987 ft 476 kts 147°
2026-05-04 17:01 37.09633 29.93518 38983 ft 477 kts 147°
2026-05-04 17:02 36.98713 30.02872 38976 ft 477 kts 148°
2026-05-04 17:03 36.90497 30.09888 38969 ft 477 kts 148°
2026-05-04 17:03 36.82289 30.16875 38938 ft 475 kts 148°
2026-05-04 17:04 36.71359 30.26131 38931 ft 475 kts 149°
2026-05-04 17:05 36.60422 30.35366 38934 ft 477 kts 149°
2026-05-04 17:06 36.53141 30.41492 38914 ft 474 kts 149°
2026-05-04 17:07 36.45851 30.47614 38917 ft 474 kts 149°
2026-05-04 17:07 36.39496 30.52940 38917 ft 474 kts 149°
2026-05-04 17:08 36.31288 30.59803 38914 ft 474 kts 149°
2026-05-04 17:09 36.25826 30.64359 38924 ft 474 kts 149°
2026-05-04 17:09 36.20350 30.68920 38927 ft 474 kts 150°
2026-05-04 17:10 36.06569 30.79961 38930 ft 469 kts 159°
2026-05-04 17:11 36.00437 30.82413 38911 ft 459 kts 175°
2026-05-04 17:12 35.91015 30.83241 38898 ft 449 kts 183°
2026-05-04 17:13 35.75400 30.84182 38896 ft 450 kts 181°
2026-05-04 17:14 35.66290 30.87716 38896 ft 474 kts 153°
2026-05-04 17:14 35.63599 30.90117 38896 ft 481 kts 143°
2026-05-04 17:14 35.59290 30.96477 38893 ft 492 kts 122°
2026-05-04 17:15 35.57824 31.00260 38893 ft 496 kts 112°
2026-05-04 17:16 35.53690 31.16522 38900 ft 500 kts 109°
2026-05-04 17:17 35.49531 31.32781 38894 ft 499 kts 109°
2026-05-04 17:18 35.45358 31.49003 38815 ft 499 kts 110°
2026-05-04 17:18 35.43253 31.57143 37810 ft 501 kts 109°
2026-05-04 17:19 35.41131 31.65320 36224 ft 505 kts 109°
2026-05-04 17:19 35.38978 31.73583 34561 ft 510 kts 109°
2026-05-04 17:20 35.36815 31.81865 32990 ft 511 kts 109°
2026-05-04 17:20 35.34656 31.90114 31357 ft 512 kts 109°
2026-05-04 17:20 35.33571 31.94251 30758 ft 507 kts 109°
2026-05-04 17:21 35.31430 32.02394 29544 ft 498 kts 109°
2026-05-04 17:21 35.29326 32.10403 28354 ft 489 kts 109°
2026-05-04 17:22 35.28296 32.14347 27764 ft 485 kts 109°
2026-05-04 17:22 35.27271 32.18272 27178 ft 481 kts 109°
2026-05-04 17:23 35.24246 32.29803 25445 ft 467 kts 109°
2026-05-04 17:23 35.23255 32.33562 24880 ft 462 kts 108°
2026-05-04 17:23 35.21296 32.40982 23756 ft 453 kts 108°
2026-05-04 17:24 35.20343 32.44587 23200 ft 449 kts 108°
2026-05-04 17:24 35.17501 32.55320 21545 ft 435 kts 108°
2026-05-04 17:25 35.16572 32.58819 21004 ft 431 kts 108°
2026-05-04 17:25 35.14736 32.65718 19926 ft 422 kts 109°
2026-05-04 17:26 35.12932 32.72476 18867 ft 414 kts 109°
2026-05-04 17:26 35.10298 32.82320 17305 ft 402 kts 109°
2026-05-04 17:27 35.08572 32.88752 16276 ft 395 kts 109°
2026-05-04 17:27 35.06868 32.95075 15255 ft 388 kts 110°
2026-05-04 17:28 35.05094 33.01257 14247 ft 383 kts 111°
2026-05-04 17:29 35.02468 33.10328 12751 ft 374 kts 111°
2026-05-04 17:29 34.99914 33.19180 11294 ft 364 kts 111°
2026-05-04 17:30 34.97439 33.27744 10185 ft 345 kts 111°
2026-05-04 17:31 34.95898 33.33061 9886 ft 321 kts 111°
2026-05-04 17:31 34.93700 33.40597 9067 ft 314 kts 111°
2026-05-04 17:32 34.92553 33.45699 8323 ft 312 kts 99°
2026-05-04 17:33 34.91541 33.53413 7193 ft 305 kts 100°
2026-05-04 17:33 34.91201 33.55956 6820 ft 302 kts 100°
2026-05-04 17:34 34.90188 33.63489 5705 ft 299 kts 101°
2026-05-04 17:34 34.89848 33.65979 5331 ft 297 kts 100°
2026-05-04 17:35 34.88855 33.73348 4291 ft 290 kts 101°
2026-05-04 17:35 34.88409 33.78187 3538 ft 288 kts 81°
2026-05-04 17:35 34.89085 33.80453 3176 ft 283 kts 54°
2026-05-04 17:36 34.90423 33.82109 3016 ft 266 kts 29°
2026-05-04 17:36 34.92045 33.82952 2957 ft 243 kts
2026-05-04 17:36 34.93624 33.83045 2912 ft 220 kts 347°
2026-05-04 17:36 34.95034 33.82553 2739 ft 205 kts 329°
2026-05-04 17:37 34.96166 33.81634 2628 ft 186 kts 314°
2026-05-04 17:37 34.96972 33.80483 2453 ft 174 kts 299°
2026-05-04 17:37 34.97496 33.79131 2273 ft 176 kts 285°
2026-05-04 17:37 34.97711 33.77671 2097 ft 175 kts 271°
2026-05-04 17:38 34.97613 33.76191 1900 ft 176 kts 257°
2026-05-04 17:38 34.97171 33.74809 1812 ft 177 kts 240°
2026-05-04 17:38 34.96444 33.73590 1628 ft 178 kts 230°
2026-05-04 17:38 34.95624 33.72517 1491 ft 164 kts 226°
2026-05-04 17:39 34.94065 33.70594 1497 ft 159 kts 226°
2026-05-04 17:39 34.93291 33.69643 1351 ft 152 kts 225°
2026-05-04 17:39 34.92586 33.68777 1154 ft 136 kts 226°
2026-05-04 17:40 34.91946 33.67992 998 ft 130 kts 226°
2026-05-04 17:40 34.91306 33.67202 831 ft 130 kts 226°
2026-05-04 17:40 34.90666 33.66425 673 ft 130 kts 225°
2026-05-04 17:40 34.90032 33.65648 516 ft 129 kts 226°
2026-05-04 17:41 34.89406 33.64880 385 ft 129 kts 225°
2026-05-04 17:41 34.88773 33.64103 237 ft 129 kts 225°
2026-05-04 17:41 34.88137 33.63325 54 ft 129 kts 226°
2026-05-04 17:41 34.87544 33.62576 20 ft 104 kts 225°
2026-05-04 17:42 34.87177 33.62129 24 ft 46 kts 226°
2026-05-04 17:42 34.87061 33.61996 22 ft 15 kts 223°
2026-05-04 17:42 34.86999 33.61868 22 ft 20 kts 251°
2026-05-04 17:42 34.86950 33.61701 21 ft 22 kts 249°
2026-05-04 17:43 34.86902 33.61511 20 ft 24 kts 254°
2026-05-04 17:43 34.86832 33.61373 22 ft 20 kts 224°
2026-05-04 17:43 34.86725 33.61247 20 ft 22 kts 224°
2026-05-04 17:43 34.86638 33.61139 20 ft 11 kts 231°
2026-05-04 17:44 34.86649 33.61051 20 ft 12 kts 317°
2026-05-04 17:44 34.86718 33.60976 20 ft 13 kts 317°
2026-05-04 17:44 34.86745 33.60945 20 ft 0 kts 314°
2026-05-04 17:44 34.86768 33.60923 20 ft 6 kts 345°
2026-05-04 17:45 34.86797 33.60948 20 ft 5 kts 44°
2026-05-04 17:45 34.86819 33.60976 20 ft 5 kts 47°
2026-05-04 17:45 34.86834 33.60996 20 ft 0 kts 46°